North Myrtle Beach, SC

6:12 AM EST on December 12, 2019 (GMT -0500)
Grand Strand

Weather History for KCRE - October, 2019

Change the Weather History Date:

Thursday, October 17, 2019

  Actual Average Record
Temperature  
Mean Temperature 60 °F 65 °F  
Max Temperature 70 °F 75 °F 85 °F (2008)
Min Temperature 50 °F 55 °F 38 °F (1954)
Degree Days  
Heating Degree Days 5 3  
Month to date heating degree days 5 25  
Since 1 July heating degree days 5 29  
Cooling Degree Days 0 3  
Month to date cooling degree days 134 72  
Year to date cooling degree days 2317 1856  
Growing Degree Days 10 (Base 50)    
Moisture  
Dew Point 44 °F    
Average Humidity 61    
Maximum Humidity 89    
Minimum Humidity 33    
Precipitation  
Precipitation 0.00 in 0.14 in 4.00 in (1999)
Month to date precipitation 1.21 2.38  
Year to date precipitation 43.78 44.01  
Sea Level Pressure  
Sea Level Pressure 29.87 in    
Wind  
Wind Speed 4 mph (NW)    
Max Wind Speed 14 mph    
Max Gust Speed 22 mph    
Visibility 10 miles    
Events      
T = Trace of Precipitation, MM = Missing Value Source: NWS Daily Summary

Daily Weather History Graph

Daily Weather History Graph

Search for Another Location

Airport or City:

Astronomy

Oct. 17, 2019 Rise Set
Actual Time 7:21 AM EDT 6:38 PM EDT
Civil Twilight 6:56 AM EDT 7:03 PM EDT
Nautical Twilight 6:26 AM EDT 7:32 PM EDT
Astronomical Twilight 5:58 AM EDT 8:01 PM EDT
Moon 9:18 PM EDT (10/17) 10:43 AM EDT (10/17)
Length of Visible Light 12h 07m
Length of Day
11h 17m
Waning Gibbous, 87% of the Moon is Illuminated
Oct 17
Waning Gibbous
Oct 21
Last Quarter
Oct 27
New
Nov 4
First Quarter
Nov 12
Full

Hourly Weather History & Observations

Time (EDT) Temp. Dew Point Humidity Pressure Visibility Wind Dir Wind Speed Gust Speed Precip Events Conditions
12:53 AM 62.1 °F 46.9 °F 58% 29.82 in 10.0 mi Variable 3.5 mph - N/A   Clear
1:53 AM 59.0 °F 46.0 °F 62% 29.82 in 10.0 mi Calm Calm - N/A   Clear
2:53 AM 55.9 °F 46.0 °F 69% 29.84 in 10.0 mi Calm Calm - N/A   Clear
3:53 AM 54.0 °F 48.0 °F 80% 29.84 in 10.0 mi Calm Calm - N/A   Clear
4:53 AM 54.0 °F 46.0 °F 75% 29.85 in 10.0 mi NNW 4.6 mph - N/A   Clear
5:53 AM 51.1 °F 45.0 °F 80% 29.85 in 10.0 mi North 8.1 mph - N/A   Clear
6:53 AM 50.0 °F 44.1 °F 80% 29.87 in 10.0 mi NNW 3.5 mph - N/A   Clear
7:53 AM 51.1 °F 43.0 °F 74% 29.89 in 10.0 mi Calm Calm - N/A   Clear
9:53 AM 60.1 °F 39.0 °F 46% 29.92 in 10.0 mi NNW 8.1 mph - N/A   Clear
10:53 AM 61.0 °F 37.9 °F 42% 29.93 in 10.0 mi NW 9.2 mph - N/A   Clear
11:53 AM 63.0 °F 37.9 °F 40% 29.92 in 10.0 mi WNW 8.1 mph - N/A   Clear
12:53 PM 66.0 °F 39.0 °F 37% 29.89 in 10.0 mi NW 9.2 mph - N/A   Clear
1:53 PM 66.9 °F 39.0 °F 36% 29.87 in 10.0 mi NW 5.8 mph - N/A   Clear
2:53 PM 68.0 °F 39.0 °F 35% 29.85 in 10.0 mi NW 11.5 mph 17.3 mph N/A   Clear
3:53 PM 70.0 °F 39.0 °F 32% 29.84 in 10.0 mi Variable 6.9 mph - N/A   Clear
4:53 PM 69.1 °F 39.9 °F 35% 29.83 in 10.0 mi Variable 6.9 mph - N/A   Clear
5:53 PM 68.0 °F 41.0 °F 37% 29.84 in 10.0 mi West 5.8 mph - N/A   Clear
6:53 PM 61.0 °F 50.0 °F 67% 29.86 in 10.0 mi Calm Calm - N/A   Clear
7:53 PM 59.0 °F 48.9 °F 69% 29.88 in 10.0 mi Calm Calm - N/A   Clear
8:53 PM 55.0 °F 50.0 °F 83% 29.88 in 10.0 mi Calm Calm - N/A   Clear
9:53 PM 53.1 °F 48.0 °F 83% 29.90 in 10.0 mi North 3.5 mph - N/A   Clear
10:53 PM 53.1 °F 48.0 °F 83% 29.91 in 10.0 mi Calm Calm - N/A   Clear
11:53 PM 52.0 °F 48.9 °F 89% 29.92 in 10.0 mi Calm Calm - N/A   Clear